www.pogodaiklimat.ru

Погода и климат >> Архив погоды >> Россия >> Якутия >> Батамай


ПОГОДА в Батамае

  • Прогноз погоды в Батамае
  • Монитор погоды в Батамае
  • Климат города

АРХИВ ПОГОДЫ в Батамае

Время (UTC), дата Ветер
(напр.,м/с)
 
Видим.   Явления Облачность Т
(С)
Тd
(С)
f
(%)
Тe
(С)
Тes
(С)
Комфортность P
(гПа)
Po
(гПа)
Тmin
(С)
Tmax
(С)
R
(мм)
R24
(мм)
S
(см)
15 8.12 З 1 50 км 10/0
[Cs]
-37.8 -39.9 81 -43 -43 опасность
обморожения
1023.6 1011.8
18 8.12 штиль 0 50 км 4/0
[Ci fib]
-39.8 -42.2 78 -40 -40 опасность
обморожения
1023.9 1012.1
21 8.12 штиль 0 50 км 6/0
[Ci fib]
-38.9 -41.2 79 -39 -39 опасность
обморожения
1025.0 1013.2
00 9.12 штиль 0 50 км 3/0
[Ci fib]
-40.0 -42.2 79 -40 -40 опасность
обморожения
1026.7 1014.9 -40.4 25
03 9.12 З 1 50 км 3/0
[Ci fib]
-37.3 -39.5 80 -42 -42 опасность
обморожения
1027.9 1016.2
06 9.12 З 2 50 км 3/0
[Ci fib]
-37.1 -39.5 78 -46 -46 опасность
обморожения
1029.0 1017.3
09 9.12 ЮЗ 3 50 км ясно -37.4 -39.5 81 -49 -49 опасность
обморожения
1029.0 1017.3
12 9.12 ЮЗ 3 50 км ясно -37.1 -39.5 78 -48 -48 опасность
обморожения
1032.1 1020.4 -37.1
15 9.12 ЮЗ 3 50 км ясно -37.2 -39.5 79 -48 -48 опасность
обморожения
1032.8 1021.1
18 9.12 ЮЗ 4 50 км 6/0
[Ci fib]
-36.8 -39.1 79 -50 -50 опасность
обморожения
1034.7 1023.0
21 9.12 З 3 50 км 3/0
[Ci fib]
-38.1 -40.3 80 -49 -49 опасность
обморожения
1036.6 1024.7
00 10.12 З 3 50 км 4/0
[Ci fib]
-38.3 -40.3 81 -50 -50 опасность
обморожения
1039.0 1026.9 -38.3 25
03 10.12 З 4 50 км 10/0
[Ac trans Ci fib]
-38.2 -40.3 80 -51 -51 опасность
обморожения
1039.9 1027.8
06 10.12 З 3 50 км 10/0
[Ac trans Ci fib]
-38.3 -40.3 81 -50 -50 опасность
обморожения
1041.3 1029.2
09 10.12 З 2 50 км 8/0
[Ci fib]
-39.1 -41.2 80 -48 -48 опасность
обморожения
1043.0 1030.9
12 10.12 ЮЗ 1 50 км 5/0
[Ci fib]
-41.1 -43.2 80 -46 -46 опасность
обморожения
1043.7 1031.6 -38.2
15 10.12 штиль 0 50 км 3/0
[Ci fib]
-44.2 -46.4 79 -44 -44 опасность
обморожения
1044.6 1032.3
18 10.12 штиль 0 50 км ясно -46.3 -48.1 82 -46 -46 опасность
обморожения
1045.6 1033.3
21 10.12 штиль 0 50 км ясно -47.2 -49.0 82 -47 -47 опасность
обморожения
1046.4 1034.1
00 11.12 штиль 0 50 км ясно -48.0 -50.0 80 -48 -48 опасность
обморожения
1048.0 1035.3 -48.0 25
03 11.12 С 1 50 км ясно -45.2 -47.2 80 -51 -51 опасность
обморожения
1048.4 1035.9
06 11.12 штиль 0 50 км ясно -46.4 -48.1 83 -46 -46 опасность
обморожения
1048.1 1035.6
09 11.12 штиль 0 50 км ясно -46.6 -49.0 76 -47 -47 опасность
обморожения
1048.9 1036.4
12 11.12 штиль 0 50 км ясно -47.2 -49.0 82 -47 -47 опасность
обморожения
1048.0 1035.5 -45.2
15 11.12 С 1 50 км ясно -47.4 -49.0 83 -53 -53 опасность
обморожения
1047.2 1034.9
18 11.12 С 1 50 км ясно -47.2 -49.0 82 -53 -53 опасность
обморожения
1046.9 1034.6
21 11.12 штиль 0 50 км ясно -47.4 -49.0 83 -47 -47 опасность
обморожения
1046.6 1034.3
00 12.12 С 1 50 км 4/0
[Ci fib]
-47.0 -49.0 80 -53 -53 опасность
обморожения
1046.0 1033.7 -47.7 25
03 12.12 С 1 50 км 3/0
[Ci fib]
-45.8 -48.1 77 -52 -52 опасность
обморожения
1045.0 1032.7
06 12.12 штиль 0 50 км 10/0
[Cs]
-44.4 -46.4 80 -44 -44 опасность
обморожения
1044.7 1032.4
09 12.12 СВ 1 50 км 10/0
[Cs]
-44.4 -46.4 80 -50 -50 опасность
обморожения
1044.9 1032.6
12 12.12 СВ 1 20 км слабый снег 10/0
[Cs]
-44.4 -46.4 80 -50 -50 опасность
обморожения
1044.8 1032.5 -44.4 0.0
15 12.12 штиль 0 20 км слабый снег 10/0
[Cs]
-44.8 -47.2 77 -45 -45 опасность
обморожения
1045.0 1032.7
18 12.12 СВ 2 20 км слабый снег 10/0
[Cs]
-43.1 -45.0 81 -53 -53 опасность
обморожения
1045.2 1032.9
21 12.12 СВ 2 50 км {снег} 10/0
[Cs]
-43.3 -45.7 77 -53 -53 опасность
обморожения
1045.0 1032.7
00 13.12 СВ 1 50 км {снег} 10/0
[Cs]
-43.1 -45.0 81 -49 -49 опасность
обморожения
1044.6 1032.3 -45.0 0.0 25
03 13.12 СВ 1 50 км 10/0
[Cs]
-42.3 -44.4 80 -48 -48 опасность
обморожения
1044.2 1032.1
06 13.12 СВ 1 50 км 10/0
[Ac trans Cs]
-40.1 -42.2 80 -45 -45 опасность
обморожения
1043.9 1031.8
09 13.12 В 2 50 км 10/0
[Ac trans Cs]
-39.8 -42.2 78 -49 -49 опасность
обморожения
1042.7 1030.6
12 13.12 СВ 2 50 км 10/0
[Cs]
-39.3 -41.7 78 -48 -48 опасность
обморожения
1042.0 1029.9 -39.3
15 13.12 В 2 50 км 10/0
[Cs]
-39.7 -41.7 81 -49 -49 опасность
обморожения
1040.9 1028.8
18 13.12 СВ 3 50 км 10/0
[Cs]
-37.3 -39.5 80 -48 -48 опасность
обморожения
1039.1 1027.3
21 13.12 СВ 3 50 км 10/0
[Cs]
-36.3 -38.4 81 -47 -47 опасность
обморожения
1037.9 1026.1
00 14.12 СВ 3 50 км 10/0
[Ac trans Cs]
-35.9 -38.1 80 -47 -47 опасность
обморожения
1037.0 1025.2 -39.7 25
03 14.12 СВ 3 50 км 10/0
[Cs]
-35.4 -37.7 79 -46 -46 опасность
обморожения
1036.1 1024.4
06 14.12 СВ 2 20 км слабый снег 10/0
[As op]
-34.9 -37.1 80 -43 -43 опасность
обморожения
1035.8 1024.1
09 14.12 штиль 0 20 км слабый снег 10/0
[Cs]
-35.3 -37.7 79 -35 -35 опасность
обморожения
1035.5 1023.8
12 14.12 СВ 1 20 км слабый снег 10/0
[Cs]
-35.4 -37.7 79 -40 -40 опасность
обморожения
1035.6 1023.9 -34.9 0.3
15 14.12 штиль 0 20 км слабый снег 10/0
[Cs]
-38.1 -40.3 80 -38 -38 опасность
обморожения
1035.4 1023.5
18 14.12 н/о -40.0 -42.3 78 +34 +34 очень
душно
1035.1 1023.2
21 14.12 штиль 0 50 км 4/0
[Ci fib]
-41.4 -43.8 77 -41 -41 опасность
обморожения
1034.5 1022.6
00 15.12 штиль 0 50 км 3/0
[Ci fib]
-42.8 -45.0 79 -43 -43 опасность
обморожения
1033.7 1021.5 -43.0 0.0 25
03 15.12 штиль 0 50 км ясно -41.8 -43.8 81 -42 -42 опасность
обморожения
1032.1 1020.2
06 15.12 Ю 1 50 км 3/0
[Ci fib]
-39.5 -41.7 79 -45 -45 опасность
обморожения
1031.9 1020.0
09 15.12 штиль 0 50 км 3/0
[Ci fib]
-40.5 -42.7 79 -41 -41 опасность
обморожения
1031.1 1019.2
12 15.12 штиль 0 50 км ясно -41.6 -43.8 79 -42 -42 опасность
обморожения
1030.9 1019.0 -39.5

 

Местоположение метеостанции Батамай (Якутия, Россия): широта 63.52 долгота 129.40 высота над уровнем моря 79 м.

В архиве по умолчанию представлена погода в Батамае за последнюю неделю. Архивные данные за месяц целиком и за предыдущие месяцы, начиная с января 2011 года, Вы можете получить, выбрав интересующий диапазон дат из раскрывающегося списка и нажав кнопку "Ввод!".

Внимание! Время в таблицах - всемирное. Для получения местного времени необходимо прибавить поправку, которая в Батамае равна 9 ч.

Смотрите также архив погоды в соседних городах и на ближайших метеорологических станциях:

Погода в Сеген-Кюели (Якутия, Россия) (69 км)
Погода в Намцах (Якутия, Россия) (90 км)
Погода в Сангаре (Якутия, Россия) (109 км)
Погода в Верхоянском Перевозе (Якутия, Россия) (131 км)
Погода в Якутске (Якутия, Россия) (169 км)
Погода в Сого-Хае (Якутия, Россия) (169 км)
Погода в Бердигестяхе (Якутия, Россия) (185 км)
Погода в Себян-Кюеле (Якутия, Россия) (200 км)
Погода в Покровске (Якутия, Россия) (227 км)
Погода в Хатырык-Хомо (Якутия, Россия) (231 км)

Пояснения к столбцам:

Ветер - указаны скорость ветра в м/с - средняя за 10 мин, порывы в срок и между сроками (в фигурных скобках) и направление, откуда дует ветер: С - северный, СВ - северо-восточный, В - восточный, ЮВ - юго-восточный, Ю - южный, ЮЗ - юго-западный, З - западный, СЗ - северо-западный.
Видимость - горизонтальная дальность видимости в метрах или километрах. При видимости от 1 до 10 км при отсутствии осадков обычно наблюдается дымка, при ухудшении видимости до 1 км и менее - туман. В сухую погоду видимость может ухудшаться дымом, пылью или мглою.
Явления - указаны атмосферные явления, наблюдавшиеся в срок или в последний час перед сроком; фигурными скобками обозначены явления, наблюдавшиеся между сроками (за 1-3 часа до срока); квадратными скобками обозначены град или гололедные отложения с указанием их диаметра в мм.
Облачность - указаны через наклонную черту общая и нижняя облачность в баллах и высота нижней границы облаков в метрах; квадратными скобками обозначены формы облаков: Ci - перистые, Cs - перисто-слоистые, Cc - перисто-кучевые, Ac - высококучевые, As - высокослоистые, Sc - слоисто-кучевые, Ns - слоисто-дождевые, Cu - кучевые, Cb - кучево-дождевые. Подробнее классификацию облаков см. в Атласе облаков (PDF).
T - Температура воздуха - температура, измеренная на высоте 2 м над землей.
Td - Температура точки росы - температура, при понижении до которой содержащийся в воздухе водяной пар достигнет насыщения.
f - Относительная влажность воздуха - влажноcть воздуха, измеренная на высоте 2 м над землей.
Te - Эффективная температура - температура, которую ощущает одетый по сезону человек в тени. Характеристика душности погоды. При расчете учитывается влияние влажности воздуха и скорости ветра на теплоощущения человека.
Tes - Эффективная температура на солнце - температура, которую ощущает человек, с поправкой на солнечный нагрев. Характеристика знойности погоды. Зависит от высоты солнца над горизонтом, облачности и скорости ветра. Ночью, в пасмурную погоду, а также при ветре 12 м/с и более поправка равна нулю.
P - Атмосферное давление - приведенное к уровню моря атмосферное давление.
Po - Атмосферное давление - измеренное на уровне метеостанции атмосферное давление.
Tmin - Минимальная температура - минимум температуры воздуха на высоте 2 м над землей.
Tmax - Максимальная температура - максимум температуры воздуха на высоте 2 м над землей.
R - Количество осадков - Количество выпавших осадков за период времени, мм. При наведении курсора мыши на число - период времени, за который выпало указанное количество осадков.
R24 - Количество осадков - Количество выпавших осадков за 24 часа, мм.
S - Снежный покров - Высота снежного покрова, см. При наведении курсора мыши на число - состояние снежного покрова и степень покрытия местности в баллах.